FW2847 Weather Reports


Display with metric or nautical units.
time (UTC)temp
F
wind
direction
speed
MPH
gust
MPH
rain 1hr
in
rain 24hr
in
rain mn
in
humidity
%
barometer
mb
20260502224001 68 103 2.0 7.0 0.00 0.00 0.00 13 1020.6
20260502223502 69 219 2.0 6.0 0.00 0.00 0.00 13 1020.6
20260502223001 69 91 3.0 13.0 0.00 0.00 0.00 14 1020.6
20260502222732 68 88 3.0 13.0 0.00 0.00 0.00 13 1020.6
20260502221959 68 44 2.0 8.0 0.00 0.00 0.00 13 1020.6
20260502221459 69 96 1.0 8.0 0.00 0.00 0.00 14 1020.6
20260502221001 69 121 1.0 5.0 0.00 0.00 0.00 14 1020.6
20260502220500 69 92 3.0 13.0 0.00 0.00 0.00 15 1020.6
20260502220231 69 127 6.0 13.0 0.00 0.00 0.00 15 1020.6
20260502215459 68 67 4.0 11.0 0.00 0.00 0.00 14 1020.6
20260502214958 68 92 3.0 9.0 0.00 0.00 0.00 15 1020.6
20260502214457 68 108 4.0 9.0 0.00 0.00 0.00 16 1020.6
20260502213957 68 93 5.0 12.0 0.00 0.00 0.00 15 1020.6
20260502213459 68 91 6.0 12.0 0.00 0.00 0.00 15 1020.6
20260502213229 68 94 6.0 15.0 0.00 0.00 0.00 15 1020.6
20260502212457 68 101 5.0 15.0 0.00 0.00 0.00 15 1020.6
20260502211958 68 83 4.0 12.0 0.00 0.00 0.00 17 1020.6
20260502211457 67 97 6.0 12.0 0.00 0.00 0.00 16 1020.6
20260502211229 68 101 5.0 10.0 0.00 0.00 0.00 17 1020.6
20260502210726 68 66 5.0 11.0 0.00 0.00 0.00 17 1020.6
20260502205956 68 90 4.0 11.0 0.00 0.00 0.00 18 1020.6
20260502205455 68 134 4.0 10.0 0.00 0.00 0.00 17 1020.6
20260502205226 67 123 5.0 13.0 0.00 0.00 0.00 17 1020.6
20260502204727 67 91 4.0 13.0 0.00 0.00 0.00 18 1020.6
20260502203955 67 101 1.0 8.0 0.00 0.00 0.00 17 1020.6
20260502203458 69 118 1.0 6.0 0.00 0.00 0.00 18 1020.6
20260502202956 68 97 1.0 7.0 0.00 0.00 0.00 19 1020.6
20260502202455 67 79 2.0 7.0 0.00 0.00 0.00 19 1020.6
20260502201954 67 91 1.0 7.0 0.00 0.00 0.00 19 1020.6
20260502201455 67 97 2.0 7.0 0.00 0.00 0.00 20 1020.6
20260502200955 65 96 3.0 8.0 0.00 0.00 0.00 19 1020.6
20260502200453 66 94 3.0 8.0 0.00 0.00 0.00 19 1020.6
20260502195959 68 164 1.0 5.0 0.00 0.00 0.00 19 1020.6
20260502195953 67 124 2.0 8.0 0.00 0.00 0.00 19 1020.6
20260502194954 67 205 1.0 4.0 0.00 0.00 0.00 21 1020.6
20260502194724 67 121 1.0 5.0 0.00 0.00 0.00 18 1020.6
20260502193953 67 235 0.0 5.0 0.00 0.00 0.00 19 1020.6
20260502193453 67 76 1.0 5.0 0.00 0.00 0.00 19 1020.6
20260502192954 67 199 2.0 8.0 0.00 0.00 0.00 20 1020.6
20260502192454 67 136 3.0 8.0 0.00 0.00 0.00 20 1020.6
20260502192224 66 146 3.0 9.0 0.00 0.00 0.00 20 1020.6
20260502191454 66 108 3.0 9.0 0.00 0.00 0.00 20 1020.6
20260502190954 66 110 2.0 8.0 0.00 0.00 0.00 21 1020.6
20260502190724 65 108 2.0 8.0 0.00 0.00 0.00 22 1020.6
20260502185952 65 91 2.0 8.0 0.00 0.00 0.00 20 1020.6
20260502185454 64 276 3.0 11.0 0.00 0.00 0.00 22 1020.6
20260502184952 64 75 5.0 11.0 0.00 0.00 0.00 21 1020.6
20260502184453 65 104 4.0 11.0 0.00 0.00 0.00 21 1020.6
20260502183954 65 91 4.0 11.0 0.00 0.00 0.00 21 1020.6
20260502183454 64 101 3.0 9.0 0.00 0.00 0.00 23 1020.6
20260502182954 64 119 2.0 8.0 0.00 0.00 0.00 22 1020.6
20260502182455 64 75 1.0 8.0 0.00 0.00 0.00 23 1020.6
20260502181958 62 96 2.0 10.0 0.00 0.00 0.00 23 1020.6
20260502181953 63 100 1.0 10.0 0.00 0.00 0.00 22 1020.6
20260502180952 62 46 4.0 11.0 0.00 0.00 0.00 22 1020.6
20260502180451 62 103 4.0 11.0 0.00 0.00 0.00 22 1020.6
20260502170448 61 15 4.0 10.0 0.00 0.00 0.00 24 1020.6
20260502163948 61 74 2.0 5.0 0.00 0.00 0.00 24 1020.6
20260502163716 60 129 2.0 7.0 0.00 0.00 0.00 25 1020.6
20260502163606 60 85 3.0 7.0 0.00 0.00 0.00 23 1020.6
20260502162717 60 111 2.0 6.0 0.00 0.00 0.00 24 1020.6
20260502161944 60 126 2.0 5.0 0.00 0.00 0.00 26 1020.6
20260502161446 59 98 1.0 4.0 0.00 0.00 0.00 25 1020.6
20260502160944 60 117 1.0 4.0 0.00 0.00 0.00 25 1020.6
20260502160443 60 83 0.0 3.0 0.00 0.00 0.00 25 1020.6
20260502151943 59 84 3.0 7.0 0.00 0.00 0.00 26 1020.6
20260502151444 58 79 2.0 6.0 0.00 0.00 0.00 26 1020.6
20260502150942 59 103 1.0 6.0 0.00 0.00 0.00 26 1020.6
20260502150442 60 115 0.0 2.0 0.00 0.00 0.00 26 1020.6
20260502130714 50 256 0.0 0.0 0.00 0.00 0.00 38 1020.6
20260502123711 45 256 0.0 0.0 0.00 0.00 0.00 41 1020.6
20260502122942 44 256 0.0 0.0 0.00 0.00 0.00 43 1020.6
20260502122441 43 256 0.0 0.0 0.00 0.00 0.00 42 1020.6
20260502121946 43 256 0.0 0.0 0.00 0.00 0.00 43 1020.6
20260502121941 43 256 0.0 0.0 0.00 0.00 0.00 43 1020.6
20260502121211 43 256 0.0 2.0 0.00 0.00 0.00 43 1020.6
20260502121100 42 259 1.0 3.0 0.00 0.00 0.00 42 1020.6
20260502115438 42 273 1.0 4.0 0.00 0.00 0.00 44 1020.6
20260502114938 41 278 1.0 4.0 0.00 0.00 0.00 46 1020.6
20260502114438 41 290 1.0 3.0 0.00 0.00 0.00 45 1020.6
20260502113940 42 271 2.0 4.0 0.00 0.00 0.00 45 1020.6
20260502113710 42 293 2.0 5.0 0.00 0.00 0.00 44 1020.6
20260502112940 42 287 2.0 5.0 0.00 0.00 0.00 44 1020.6
20260502112440 42 295 2.0 5.0 0.00 0.00 0.00 44 1020.6
20260502112209 42 255 2.0 5.0 0.00 0.00 0.00 43 1020.6
20260502111437 42 295 2.0 5.0 0.00 0.00 0.00 44 1020.6
20260502110938 42 288 2.0 4.0 0.00 0.00 0.00 45 1020.6
20260502110436 42 299 2.0 4.0 0.00 0.00 0.00 45 1020.6
20260502105937 42 283 2.0 4.0 0.00 0.00 0.00 44 1020.6
20260502105435 42 295 1.0 4.0 0.00 0.00 0.00 43 1020.6
20260502104935 43 297 2.0 5.0 0.00 0.00 0.00 43 1020.6
20260502104432 43 297 2.0 5.0 0.00 0.00 0.00 41 1020.6
20260502103932 45 288 2.0 4.0 0.00 0.00 0.00 39 1020.6
20260502103702 45 297 2.0 4.0 0.00 0.00 0.00 38 1020.6
20260502102931 46 297 2.0 4.0 0.00 0.00 0.00 37 1020.6
20260502102702 46 286 3.0 6.0 0.00 0.00 0.00 37 1020.6
20260502102202 46 283 3.0 6.0 0.00 0.00 0.00 37 1020.6
20260502101659 46 285 3.0 6.0 0.00 0.00 0.00 37 1020.6
20260502100930 46 291 2.0 6.0 0.00 0.00 0.00 37 1020.6
20260502100428 45 300 2.0 4.0 0.00 0.00 0.00 38 1020.6
20260502091427 45 285 3.0 7.0 0.00 0.00 0.00 40 1020.6
20260502091159 45 291 3.0 6.0 0.00 0.00 0.00 40 1020.6
20260502090424 45 276 3.0 6.0 0.00 0.00 0.00 39 1020.6
20260502071420 46 279 1.0 2.0 0.00 0.00 0.00 38 1020.6
20260502070921 46 285 1.0 2.0 0.00 0.00 0.00 38 1020.6
20260502070421 46 275 1.0 2.0 0.00 0.00 0.00 38 1020.6
20260502065919 46 285 1.0 2.0 0.00 0.00 0.00 38 1020.6
20260502065653 46 285 1.0 4.0 0.00 0.00 0.00 39 1020.6
20260502064921 45 283 1.0 4.0 0.00 0.00 0.00 39 1020.6
20260502064420 46 292 1.0 3.0 0.00 0.00 0.00 39 1020.6
20260502063921 46 294 1.0 4.0 0.00 0.00 0.00 39 1020.6
20260502063422 45 278 1.0 4.0 0.00 0.00 0.00 39 1020.6
20260502062920 46 274 1.0 3.0 0.00 0.00 0.00 39 1020.6
20260502062651 46 276 1.0 3.0 0.00 0.00 0.00 38 1020.6
20260502062151 46 285 0.0 3.0 0.00 0.00 0.00 38 1020.6
20260502061419 47 285 0.0 2.0 0.00 0.00 0.00 37 1020.6
20260502060921 47 276 1.0 2.0 0.00 0.00 0.00 37 1020.6
20260502060419 47 270 1.0 3.0 0.00 0.00 0.00 37 1020.6
20260502060151 47 285 1.0 3.0 0.00 0.00 0.00 37 1020.6
20260502060039 47 278 0.0 1.0 0.00 0.00 0.00 36 1020.6
20260502054920 47 285 1.0 3.0 0.00 0.00 0.00 36 1020.6
20260502054421 47 264 1.0 3.0 0.00 0.00 0.00 36 1020.6
20260502053919 47 280 1.0 3.0 0.00 0.00 0.00 37 1020.6
20260502053421 47 283 1.0 3.0 0.00 0.00 0.00 36 1020.6
20260502052921 48 270 1.0 3.0 0.00 0.00 0.00 36 1020.6
20260502052420 48 276 1.0 3.0 0.00 0.00 0.00 35 1020.6
20260502051919 48 278 1.0 4.0 0.00 0.00 0.00 35 1020.6
20260502051421 48 288 2.0 4.0 0.00 0.00 0.00 36 1020.6
20260502051151 48 272 1.0 3.0 0.00 0.00 0.00 36 1020.6
20260502050419 48 285 1.0 2.0 0.00 0.00 0.00 35 1020.6
20260502045921 48 282 1.0 2.0 0.00 0.00 0.00 35 1020.6
20260502045419 48 283 1.0 2.0 0.00 0.00 0.00 34 1020.6
20260502044921 48 283 0.0 2.0 0.00 0.00 0.00 35 1020.6
20260502044420 48 302 1.0 2.0 0.00 0.00 0.00 35 1020.6
20260502043922 47 297 1.0 3.0 0.00 0.00 0.00 37 1020.6
20260502043651 48 295 1.0 3.0 0.00 0.00 0.00 36 1020.6
20260502042919 48 302 0.0 3.0 0.00 0.00 0.00 36 1020.6
20260502042422 47 296 0.0 2.0 0.00 0.00 0.00 37 1020.6
20260502042152 47 309 0.0 2.0 0.00 0.00 0.00 36 1020.6
20260502041418 47 304 0.0 3.0 0.00 0.00 0.00 37 1020.6
20260502040917 47 285 1.0 3.0 0.00 0.00 0.00 38 1020.6
20260502040415 47 295 1.0 3.0 0.00 0.00 0.00 38 1020.6
20260502035914 47 295 1.0 3.0 0.00 0.00 0.00 36 1020.6
20260502035413 48 295 1.0 3.0 0.00 0.00 0.00 35 1020.6
20260502034916 47 288 1.0 3.0 0.00 0.00 0.00 36 1020.6
20260502034413 47 297 1.0 4.0 0.00 0.00 0.00 38 1020.6
20260502033913 47 297 1.0 4.0 0.00 0.00 0.00 37 1020.6
20260502033414 48 295 0.0 2.0 0.00 0.00 0.00 36 1020.6
20260502032914 47 290 0.0 3.0 0.00 0.00 0.00 37 1020.6
20260502032413 47 283 0.0 3.0 0.00 0.00 0.00 39 1020.6
20260502031914 47 294 1.0 3.0 0.00 0.00 0.00 37 1020.6
20260502031413 47 274 2.0 3.0 0.00 0.00 0.00 37 1020.6
20260502030915 47 307 2.0 4.0 0.00 0.00 0.00 37 1020.6
20260502030413 48 295 2.0 4.0 0.00 0.00 0.00 36 1020.6
20260502025914 47 290 1.0 3.0 0.00 0.00 0.00 37 1020.6
20260502025414 47 296 1.0 3.0 0.00 0.00 0.00 36 1020.6
20260502025142 48 291 1.0 3.0 0.00 0.00 0.00 35 1020.6
20260502024413 49 295 2.0 4.0 0.00 0.00 0.00 34 1020.6
20260502023911 49 282 1.0 4.0 0.00 0.00 0.00 34 1020.6
20260502023410 49 274 1.0 3.0 0.00 0.00 0.00 34 1020.6
20260502023142 49 286 1.0 3.0 0.00 0.00 0.00 34 1020.6
20260502022411 50 293 1.0 3.0 0.00 0.00 0.00 31 1020.6
20260502021910 51 285 1.0 3.0 0.00 0.00 0.00 31 1020.6
20260502021640 51 278 1.0 3.0 0.00 0.00 0.00 30 1020.6
20260502020907 52 276 0.0 2.0 0.00 0.00 0.00 29 1020.6
20260502020407 52 282 0.0 2.0 0.00 0.00 0.00 28 1020.6
20260502020138 52 285 1.0 2.0 0.00 0.00 0.00 28 1020.6
20260502015407 52 275 1.0 3.0 0.00 0.00 0.00 28 1020.6
20260502015139 52 274 0.0 3.0 0.00 0.00 0.00 29 1020.6
20260502014410 53 282 0.0 2.0 0.00 0.00 0.00 27 1020.6
20260502013908 53 280 0.0 2.0 0.00 0.00 0.00 27 1020.6
20260502013407 53 281 0.0 1.0 0.00 0.00 0.00 28 1020.6
20260502012908 53 278 0.0 0.0 0.00 0.00 0.00 27 1020.6
20260502012638 53 281 0.0 0.0 0.00 0.00 0.00 27 1020.6
20260502011907 53 289 0.0 1.0 0.00 0.00 0.00 27 1020.6
20260502011407 53 282 0.0 1.0 0.00 0.00 0.00 26 1020.6
20260502010908 54 3 0.0 0.0 0.00 0.00 0.00 26 1020.6
20260502010410 55 336 0.0 3.0 0.00 0.00 0.00 25 1020.6
20260502005913 57 359 1.0 3.0 0.00 0.00 0.00 25 1020.6
20260502005908 56 18 1.0 3.0 0.00 0.00 0.00 24 1020.6
20260502004908 56 37 1.0 4.0 0.00 0.00 0.00 25 1020.6
20260502004636 55 15 1.0 5.0 0.00 0.00 0.00 25 1020.6
20260502004137 55 32 2.0 5.0 0.00 0.00 0.00 25 1020.6
20260502003406 56 321 2.0 5.0 0.00 0.00 0.00 24 1020.6
20260502002905 57 316 2.0 6.0 0.00 0.00 0.00 24 1020.6
20260502002637 58 12 2.0 6.0 0.00 0.00 0.00 24 1020.6
20260502001910 57 300 1.0 5.0 0.00 0.00 0.00 23 1020.6
20260502001906 57 313 1.0 5.0 0.00 0.00 0.00 25 1020.6
20260502000906 58 227 1.0 5.0 0.00 0.00 0.00 23 1020.6
20260502000404 58 354 1.0 4.0 0.00 0.00 0.00 23 1020.6
20260501235903 57 331 1.0 4.0 0.00 0.00 0.00 24 1020.6
20260501235404 57 300 0.0 3.0 0.00 0.00 0.00 24 1020.6
20260501234904 58 77 2.0 8.0 0.00 0.00 0.00 24 1020.6
20260501234404 57 49 3.0 9.0 0.00 0.00 0.00 24 1020.6
20260501234134 57 108 3.0 9.0 0.00 0.00 0.00 24 1020.6
20260501233634 57 56 3.0 7.0 0.00 0.00 0.00 24 1020.6
20260501232904 57 46 2.0 7.0 0.00 0.00 0.00 24 1020.6
20260501232403 57 65 1.0 7.0 0.00 0.00 0.00 25 1020.6
20260501231904 57 105 2.0 9.0 0.00 0.00 0.00 25 1020.6
20260501231635 57 40 3.0 9.0 0.00 0.00 0.00 25 1020.6
20260501231134 58 85 3.0 9.0 0.00 0.00 0.00 25 1020.6
20260501230403 57 56 3.0 8.0 0.00 0.00 0.00 26 1020.6
20260501225900 57 311 3.0 8.0 0.00 0.00 0.00 26 1020.6
20260501225634 55 40 2.0 8.0 0.00 0.00 0.00 28 1020.6
20260501224903 56 304 2.0 9.0 0.00 0.00 0.00 28 1020.6
20260501224401 56 11 3.0 9.0 0.00 0.00 0.00 28 1020.6